Simultaneous Nadir Overpasses (SNOs) Predictions

Prediction of SNOs near US between NOAA-19 and NPP Satellite Orbit:

Table of predicted SNOs near US for the next 10.0 days since TLE Epoch: 1/14/2012
<
Index Date (NOAA-19) Time (NOAA-19) NOAA-19 Lat,Lon Date (NPP) Time (NPP) NPP Lat,Lon Distance(km) Time Diff (sec)
1 01/15/2012 06:13:55 31.73, -65.02 01/15/2012 06:14:57 32.19, -67.08 200.74 62
2 01/15/2012 07:50:46 49.90, -84.13 01/15/2012 07:51:15 50.28, -86.09 146.29 29
3 01/15/2012 09:32:56 49.64,-109.77 01/15/2012 09:32:50 49.98,-111.60 136.78 6
4 01/15/2012 17:41:04 49.97, -72.93 01/15/2012 17:38:06 49.82, -73.75 61.40 178
5 01/15/2012 19:23:10 50.00, -98.47 01/15/2012 19:19:37 49.89, -99.16 51.12 213
6 01/15/2012 21:05:15 49.97,-123.98 01/15/2012 21:01:06 49.84,-124.51 40.98 249
7 01/16/2012 07:47:49
